Midlothian, TX

9:39 PM CST on February 10, 2016 (GMT -0600)
Midlothian

Weather History for KJWY - October, 2012

Change the Weather History Date:

Sunday, October 7, 2012

  Actual Average (KRBD) Record (KRBD)
Temperature  
Mean Temperature 48 °F -  
Max Temperature 51 °F 77 °F 97 °F (2014)
Min Temperature 46 °F 57 °F 43 °F (2000)
Degree Days  
Heating Degree Days 16    
Moisture  
Dew Point 35 °F    
Average Humidity 61    
Maximum Humidity 71    
Minimum Humidity 47    
Precipitation  
Precipitation 0.00 in - - ()
Sea Level Pressure  
Sea Level Pressure 30.27 in    
Wind  
Wind Speed 8 mph (NNE)    
Max Wind Speed 13 mph    
Max Gust Speed 20 mph    
Visibility 10 miles    
Events      
Averages and records for this station are not official NWS values.
T = Trace of Precipitation, MM = Missing Value Source: NWS Daily Summary

Daily Weather History Graph

Daily Weather History Graph

Search for Another Location

Airport or City:

Trip Planner

Search our weather history database for the weather conditions in past years. The results will help you decide how hot, cold, wet, or windy it might be!

Date:

Astronomy

Oct. 07, 2012 Rise Set
Actual Time 7:26 AM CDT 7:04 PM CDT
Civil Twilight 7:01 AM CDT 7:28 PM CDT
Nautical Twilight 6:33 AM CDT 7:57 PM CDT
Astronomical Twilight 6:04 AM CDT 8:25 PM CDT
Moon No Moon Rise 1:50 PM CDT (10/7)
Length of Visible Light 12h 27m
Length of Day
11h 37m
Waning Gibbous, 56% of the Moon is Illuminated
Oct 7
Waning Gibbous
Oct 8
Last Quarter
Oct 15
New
Oct 21
First Quarter
Oct 29
Full

Hourly Weather History & Observations

Time (CDT) Temp. Windchill Dew Point Humidity Pressure Visibility Wind Dir Wind Speed Gust Speed Precip Events Conditions
12:15 AM 46.4 °F 41.5 °F 37.4 °F 71% 30.25 in 10.0 mi North 10.4 mph 19.6 mph N/A   Overcast
12:35 AM 46.4 °F 41.5 °F 37.4 °F 71% 30.26 in 10.0 mi NNE 10.4 mph 18.4 mph N/A   Overcast
12:55 AM 46.4 °F 40.7 °F 37.4 °F 71% 30.26 in 10.0 mi NNE 12.7 mph 17.3 mph N/A   Overcast
1:15 AM 46.4 °F 41.5 °F 37.4 °F 71% 30.25 in 10.0 mi NNE 10.4 mph 17.3 mph N/A   Overcast
1:35 AM 46.4 °F 42.4 °F 35.6 °F 66% 30.26 in 10.0 mi North 8.1 mph - N/A   Overcast
1:55 AM 46.4 °F 41.9 °F 35.6 °F 66% 30.26 in 10.0 mi NNE 9.2 mph 17.3 mph N/A   Overcast
2:15 AM 46.4 °F 41.9 °F 35.6 °F 66% 30.26 in 10.0 mi NNE 9.2 mph 16.1 mph N/A   Overcast
2:35 AM 46.4 °F 41.9 °F 35.6 °F 66% 30.27 in 10.0 mi North 9.2 mph - N/A   Overcast
2:55 AM 46.4 °F 41.9 °F 35.6 °F 66% 30.26 in 10.0 mi NNE 9.2 mph - N/A   Overcast
3:15 AM 46.4 °F 41.5 °F 35.6 °F 66% 30.26 in 10.0 mi NNE 10.4 mph 17.3 mph N/A   Overcast
3:35 AM 46.4 °F 41.5 °F 35.6 °F 66% 30.27 in 10.0 mi NNE 10.4 mph 17.3 mph N/A   Overcast
3:55 AM 46.4 °F 42.4 °F 35.6 °F 66% 30.27 in 10.0 mi NNE 8.1 mph 16.1 mph N/A   Overcast
4:15 AM 46.4 °F 42.9 °F 35.6 °F 66% 30.27 in 10.0 mi North 6.9 mph - N/A   Overcast
4:35 AM 46.4 °F 42.4 °F 35.6 °F 66% 30.27 in 10.0 mi NNE 8.1 mph - N/A   Overcast
4:55 AM 46.4 °F 42.4 °F 35.6 °F 66% 30.27 in 10.0 mi North 8.1 mph 19.6 mph N/A   Overcast
5:15 AM 46.4 °F 41.1 °F 35.6 °F 66% 30.27 in 10.0 mi NNE 11.5 mph - N/A   Overcast
5:35 AM 46.4 °F 41.5 °F 35.6 °F 66% 30.27 in 10.0 mi North 10.4 mph - N/A   Overcast
5:55 AM 46.4 °F 41.9 °F 35.6 °F 66% 30.27 in 10.0 mi NNE 9.2 mph - N/A   Overcast
6:15 AM 46.4 °F 42.9 °F 35.6 °F 66% 30.27 in 10.0 mi NNE 6.9 mph 16.1 mph N/A   Overcast
6:35 AM 46.4 °F 42.9 °F 35.6 °F 66% 30.28 in 10.0 mi NNE 6.9 mph - N/A   Overcast
6:55 AM 46.4 °F 42.9 °F 35.6 °F 66% 30.29 in 10.0 mi North 6.9 mph - N/A   Overcast
7:15 AM 46.4 °F 44.3 °F 35.6 °F 66% 30.29 in 10.0 mi North 4.6 mph - N/A   Overcast
7:35 AM 46.4 °F 42.9 °F 35.6 °F 66% 30.29 in 10.0 mi North 6.9 mph - N/A   Overcast
7:55 AM 46.4 °F 42.9 °F 35.6 °F 66% 30.29 in 10.0 mi NNE 6.9 mph - N/A   Overcast
8:15 AM 46.4 °F 41.9 °F 35.6 °F 66% 30.30 in 10.0 mi NNE 9.2 mph - N/A   Overcast
8:35 AM 46.4 °F 41.9 °F 35.6 °F 66% 30.30 in 10.0 mi North 9.2 mph - N/A   Overcast
8:55 AM 46.4 °F 43.5 °F 35.6 °F 66% 30.30 in 10.0 mi NNE 5.8 mph - N/A   Overcast
9:15 AM 48.2 °F - 35.6 °F 62% 30.30 in 10.0 mi NE 8.1 mph - N/A   Overcast
9:35 AM 48.2 °F - 35.6 °F 62% 30.30 in 10.0 mi NE 5.8 mph - N/A   Overcast
9:55 AM 48.2 °F - 35.6 °F 62% 30.30 in 10.0 mi NNE 5.8 mph - N/A   Overcast
10:15 AM 50.0 °F - 35.6 °F 58% 30.31 in 10.0 mi North 8.1 mph - N/A   Overcast
10:35 AM 48.2 °F - 35.6 °F 62% 30.32 in 10.0 mi North 8.1 mph - N/A   Overcast
10:55 AM 50.0 °F - 35.6 °F 58% 30.32 in 10.0 mi North 8.1 mph - N/A   Overcast
11:15 AM 50.0 °F - 35.6 °F 58% 30.32 in 10.0 mi North 6.9 mph - N/A   Overcast
11:35 AM 50.0 °F - 35.6 °F 58% 30.32 in 10.0 mi North 9.2 mph - N/A   Overcast
11:55 AM 50.0 °F - 35.6 °F 58% 30.31 in 10.0 mi NNE 8.1 mph - N/A   Overcast
12:15 PM 50.0 °F - 35.6 °F 58% 30.30 in 10.0 mi North 8.1 mph - N/A   Overcast
12:35 PM 50.0 °F - 35.6 °F 58% 30.29 in 10.0 mi North 6.9 mph - N/A   Overcast
12:55 PM 50.0 °F - 33.8 °F 54% 30.28 in 10.0 mi North 5.8 mph - N/A   Overcast
1:15 PM 50.0 °F - 33.8 °F 54% 30.27 in 10.0 mi North 9.2 mph - N/A   Overcast
1:35 PM 50.0 °F - 33.8 °F 54% 30.27 in 10.0 mi North 9.2 mph - N/A   Overcast
1:55 PM 50.0 °F - 33.8 °F 54% 30.26 in 10.0 mi NNE 5.8 mph - N/A   Overcast
2:15 PM 51.8 °F - 33.8 °F 50% 30.25 in 10.0 mi North 6.9 mph - N/A   Overcast
2:35 PM 51.8 °F - 33.8 °F 50% 30.24 in 10.0 mi North 5.8 mph - N/A   Overcast
3:15 PM 51.8 °F - 32.0 °F 47% 30.22 in 10.0 mi NNE 6.9 mph - N/A   Overcast
3:35 PM 51.8 °F - 32.0 °F 47% 30.22 in 10.0 mi North 9.2 mph - N/A   Overcast
3:55 PM 51.8 °F - 32.0 °F 47% 30.21 in 10.0 mi North 10.4 mph - N/A   Overcast
4:15 PM 51.8 °F - 32.0 °F 47% 30.21 in 10.0 mi North 10.4 mph - N/A   Overcast
4:35 PM 51.8 °F - 32.0 °F 47% 30.22 in 10.0 mi North 9.2 mph - N/A   Overcast
4:55 PM 51.8 °F - 32.0 °F 47% 30.21 in 10.0 mi North 8.1 mph - N/A   Overcast
5:15 PM 51.8 °F - 32.0 °F 47% 30.21 in 10.0 mi North 9.2 mph - N/A   Overcast
5:35 PM 50.0 °F - 32.0 °F 50% 30.21 in 10.0 mi North 9.2 mph - N/A   Overcast
5:55 PM 50.0 °F - 32.0 °F 50% 30.22 in 10.0 mi North 8.1 mph - N/A   Overcast
6:15 PM 50.0 °F - 32.0 °F 50% 30.23 in 10.0 mi North 9.2 mph - N/A   Overcast
10:15 PM 48.2 °F - 37.4 °F 66% 30.26 in 10.0 mi Calm Calm - N/A   Overcast
10:35 PM 48.2 °F - 37.4 °F 66% 30.27 in 10.0 mi Calm Calm - N/A   Overcast
10:55 PM 48.2 °F - 37.4 °F 66% 30.26 in 10.0 mi Calm Calm - N/A   Overcast
11:15 PM 48.2 °F - 37.4 °F 66% 30.26 in 10.0 mi Calm Calm - N/A   Overcast
11:35 PM 48.2 °F - 37.4 °F 66% 30.25 in 10.0 mi Calm Calm - N/A   Overcast
11:55 PM 48.2 °F - 37.4 °F 66% 30.25 in 10.0 mi Calm Calm - N/A   Overcast